CET,Max TemperatureF,Mean TemperatureF,Min TemperatureF,Max Dew PointF,MeanDew PointF,Min DewpointF,Max Humidity, Mean Humidity, Min Humidity, Max Sea Level PressureIn, Mean Sea Level PressureIn, Min Sea Level PressureIn, Max VisibilityMiles, Mean VisibilityMiles, Min VisibilityMiles, Max Wind SpeedMPH, Mean Wind SpeedMPH, Max Gust SpeedMPH,PrecipitationIn, CloudCover, Events, WindDirDegrees
2014-1-1,35,32,28,33,30,25,100,90,71,30.11,30.02,29.92,7,4,1,9,3,,0.00,7,,156
2014-1-2,36,31,26,32,29,24,100,87,73,29.98,29.85,29.80,6,5,3,9,5,,0.00,6,Rain,145
2014-1-3,45,36,28,37,33,27,100,84,59,29.99,29.93,29.89,16,8,0,17,9,,0.00,3,Fog,182
2014-1-4,43,39,35,38,36,34,93,82,69,30.04,29.84,29.59,19,12,6,20,9,,0.00,6,Rain,160
2014-1-5,42,37,32,40,37,32,100,94,87,30.02,29.74,29.53,9,5,1,20,8,,0.12,5,Fog-Rain,228
2014-1-6,43,36,30,36,33,29,100,87,65,30.09,30.01,29.95,19,10,5,12,7,,0.00,1,,165
2014-1-7,50,42,33,39,35,32,93,77,54,30.15,30.07,29.95,19,10,6,14,7,,0.00,3,,195
2014-1-8,52,44,36,43,38,34,93,80,55,30.20,30.12,30.06,19,10,5,22,8,28,0.00,1,Rain,209
2014-1-9,52,43,34,43,38,35,100,81,50,30.17,29.93,29.71,19,7,3,24,7,39,0.01,4,Rain,186
2014-1-10,43,39,35,41,32,28,87,70,47,30.12,29.97,29.74,16,8,6,23,19,,0.00,4,Rain,243
2014-1-11,43,38,32,36,33,30,93,80,59,30.12,30.03,29.95,19,12,2,24,12,36,0.00,3,Rain,217
2014-1-12,39,34,28,31,27,25,93,72,47,30.27,30.16,30.06,19,7,6,20,13,29,0.00,2,Rain,248
2014-1-13,38,30,23,34,28,23,100,85,52,30.17,29.99,29.86,19,8,1,14,6,,0.00,8,,205
2014-1-14,33,32,30,34,32,30,100,97,93,29.94,29.76,29.68,2,1,0,7,4,,0.01,8,Fog-Rain-Snow,13
2014-1-15,39,34,30,36,32,28,100,91,75,29.94,29.84,29.71,16,6,2,15,8,,0.03,7,Rain-Snow,235
2014-1-16,40,34,28,32,30,27,100,84,61,29.93,29.78,29.68,12,6,2,12,7,,0.00,5,Rain,126
2014-1-17,39,35,31,37,34,30,100,94,80,29.82,29.73,29.68,6,2,0,9,4,,0.03,5,Fog-Rain,203
2014-1-18,38,35,32,37,35,33,100,97,92,29.86,29.76,29.68,2,0,0,9,5,,0.00,8,Fog-Rain,94
2014-1-19,45,40,35,45,39,34,100,97,90,29.72,29.60,29.56,6,2,0,8,4,,0.00,5,Fog,47
2014-1-20,39,36,33,40,38,33,100,99,93,29.70,29.57,29.50,3,1,0,12,6,,0.02,8,Fog-Rain,343
2014-1-21,30,29,28,33,30,28,100,98,93,29.94,29.77,29.65,9,3,1,11,8,,0.03,8,Fog-Rain-Snow,334
2014-1-22,29,28,26,28,26,24,95,92,85,30.07,29.93,29.86,6,4,2,7,3,,0.00,8,Snow,9
2014-1-23,28,26,24,27,25,24,100,96,90,30.13,30.02,29.92,3,1,0,10,6,,0.00,8,Fog-Rain-Snow,74
2014-1-24,27,26,24,27,26,23,100,96,90,30.12,29.96,29.86,3,2,1,12,7,,0.01,8,Snow,33
2014-1-25,18,12,5,21,14,3,93,87,77,30.22,30.09,29.95,3,3,2,11,7,,0.00,7,Snow,345
2014-1-26,21,13,5,19,11,4,93,88,76,30.07,29.83,29.65,4,2,2,9,5,,0.00,7,Snow,61
2014-1-27,29,24,18,27,24,19,100,93,81,29.71,29.54,29.47,3,2,0,11,6,,0.04,8,Snow,98
2014-1-28,28,26,24,27,25,23,100,95,87,29.74,29.65,29.59,2,1,0,7,4,,0.00,8,Fog-Snow,11
2014-1-29,28,25,22,27,23,19,100,90,76,29.86,29.69,29.59,4,2,0,14,8,,0.00,8,Fog-Snow,84
2014-1-30,31,28,25,28,24,21,93,82,70,30.00,29.89,29.80,5,4,2,14,10,,0.00,8,,111
2014-1-31,38,32,26,32,29,25,100,86,70,29.97,29.86,29.77,7,4,2,11,6,,0.00,5,,106